[[{"header":{"parameterUnit":"m.s-1","parameterCategory":2,"la1":30.2991,"la2":30.254,"lo1":-89.0895,"lo2":-89.0444,"dy":0.0017,"dx":0.0017,"nx":28,"ny":28,"refTime":"2024-05-20T09:00:00:Z","depth":"0","parameterNumber":2,"parameterNumberName":"U-component_of_CURRENTS"},"data":[0,0,0,0,0,0,0,0,0,0,0,0,0,0,0,0,0,0,0,0,0,0,0,0,0,0,0,0,0,0,0,0,0,0,0,0,0,0,0,0,0,0,0,0,0,0,0,0,0,0,0,0,0,0,0,0,0,0,0.1384,0.1382,0,0.1277,0.1276,0.1275,0.114,0.1138,0.1135,0.1133,0.1088,0.1089,0.109,0,0,0,0,0,0,0,0,0,0,0,0,0,0.1559,0.1557,0.1384,0.1382,0.1381,0.1277,0.1276,0.1275,0.1141,0.1138,0.1135,0.1132,0.1087,0.1089,0.109,0,0,0,0,0,0,0,0,0,0,0,0,0,0.1474,0.1556,0.1384,0.1299,0.129,0.1278,0.1276,0.1275,0.1141,0.1138,0.1134,0.1131,0.1087,0.1088,0.109,0.1172,0,0,0.1095,0.1095,0,0,0,0,0,0,0,0,0.1478,0.1467,0.1313,0.1305,0.1295,0.1216,0.1321,0.1242,0.1142,0.1201,0.1133,0.1129,0.1137,0.1134,0.1125,0.117,0.1168,0.1095,0.1096,0.1096,0.1097,0,0,0,0,0,0,0,0.1484,0.1472,0.1344,0.1312,0.1301,0.1297,0.128,0.1306,0.1194,0.1195,0.1185,0.117,0.1132,0.1124,0.1123,0.1167,0.1095,0.1096,0.1097,0.1098,0.13,0.1304,0,0,0,0,0,0,0.1491,0.1477,0.1348,0.1341,0.1377,0.1296,0.1277,0.1247,0.1192,0.1179,0.1173,0.1164,0.1123,0.1122,0.1121,0.124,0.1096,0.1098,0.1099,0.1295,0.1301,0.1305,0,0,0,0,0,0,0.1495,0.148,0.1352,0.1406,0.1388,0.1296,0.1264,0.1247,0.1227,0.1174,0.1161,0.1168,0.112,0.1119,0.1157,0.1236,0.1099,0.11,0.129,0.1297,0.1303,0.1462,0,0,0,0,0,0,0.1501,0.1482,0.1495,0.1405,0.1385,0.1373,0.1266,0.1247,0.1223,0.121,0.1168,0.1159,0.1117,0.1156,0.1159,0.1236,0.1101,0.1284,0.1293,0.1301,0.1451,0.1473,0.1492,0,0,0,0,0,0.1507,0.1541,0.1496,0.1481,0.1394,0.1375,0.1368,0.1291,0.1227,0.1253,0.1213,0.1159,0.1211,0.1161,0.1163,0.1242,0.128,0.1291,0.13,0.1442,0.1469,0.1492,0,0,0,0,0,0,0.1645,0.1527,0.1476,0.1476,0.1439,0.1352,0.1379,0.1309,0.1296,0.1285,0.1212,0.1205,0.1271,0.1246,0.1192,0.1329,0.1241,0.1252,0.1348,0.1373,0.1393,0.138,0.1103,0,0,0,0,0,0.1677,0.1661,0.1561,0.1576,0.1557,0.147,0.1458,0.14,0.136,0.1347,0.1309,0.1297,0.1322,0.1333,0.1348,0.1426,0.1403,0.1483,0.1504,0.1521,0.1516,0.1557,0.158,0.1338,0.1338,0.1338,0,0,0.1738,0.1675,0.1668,0.1605,0.1568,0.1565,0.1456,0.1452,0.1456,0.1355,0.138,0.137,0.136,0.1437,0.1467,0.1421,0.1588,0.1534,0.1548,0.1533,0.157,0.1592,0.1613,0.1345,0.1344,0.1342,0,0,0.1845,0.1796,0.1805,0.1778,0.1723,0.1673,0.1673,0.1594,0.1571,0.1598,0.1532,0.1563,0.1588,0.1594,0.1602,0.1754,0.1695,0.1772,0.1865,0.1906,0.1925,0.1941,0.1975,0.1992,0.1783,0.1783,0.1783,0,0.1921,0.1896,0.1824,0.1827,0.1812,0.1721,0.1735,0.1725,0.1672,0.1673,0.1632,0.1671,0.1665,0.1745,0.1795,0.1799,0.1802,0.1766,0.193,0.1945,0.1959,0.1988,0.2006,0.1792,0.1791,0.179,0.1789,0,0.2008,0.1997,0.2019,0.1969,0.1968,0.1978,0.1923,0.1935,0.1892,0.1857,0.1915,0.1906,0.1913,0.1947,0.1915,0.2027,0.1993,0.1948,0.1857,0.1992,0.2016,0.2031,0.1805,0.1801,0.1799,0.1797,0,0,0.2107,0.2075,0.2076,0.206,0.2028,0.202,0.2073,0.2067,0.2072,0.2079,0.2099,0.217,0.2128,0.2135,0.2114,0.2157,0.2277,0.2103,0.2101,0.2119,0.237,0.2367,0.2382,0.2257,0.226,0.2262,0.2357,0,0.2176,0.2201,0.217,0.2204,0.2199,0.2159,0.22,0.2201,0.2191,0.2205,0.222,0.224,0.2213,0.2215,0.2267,0.2252,0.232,0.2255,0.225,0.225,0.2216,0.2401,0.2415,0.2502,0.2371,0.2374,0.2376,0,0.2225,0.223,0.227,0.2258,0.2255,0.2277,0.2289,0.2313,0.2339,0.2335,0.2368,0.2344,0.2414,0.236,0.2441,0.2398,0.2411,0.2408,0.2411,0.2353,0.2276,0.2342,0.2533,0.2477,0.2398,0.2396,0.2394,0,0.2261,0.2279,0.2307,0.2306,0.2305,0.2327,0.2333,0.2354,0.2364,0.2407,0.2411,0.2472,0.2479,0.2525,0.2519,0.2489,0.2589,0.2539,0.2563,0.2561,0.2543,0.2535,0.2658,0.263,0.263,0.263,0.2629,0,0.2295,0.2307,0.2322,0.2328,0.2354,0.2354,0.2381,0.2396,0.2425,0.2439,0.2467,0.2486,0.2519,0.2556,0.2569,0.2619,0.2638,0.2619,0.2605,0.2604,0.2601,0.2519,0.245,0.2633,0.2632,0.2632,0.2631,0,0.2298,0.2315,0.233,0.2355,0.2358,0.2373,0.2382,0.2396,0.2433,0.2454,0.2471,0.2514,0.2572,0.2605,0.2665,0.2672,0.267,0.273,0.2723,0.2709,0.2676,0.2615,0.2587,0.2524,0.2796,0.2797,0.2798,0,0.2297,0.231,0.2336,0.2337,0.234,0.2358,0.2359,0.2393,0.2402,0.246,0.2468,0.254,0.2577,0.2681,0.2736,0.2808,0.2697,0.2835,0.2794,0.2722,0.2644,0.2504,0.2441,0.2846,0.2847,0.2848,0.2848,0,0.2283,0.2296,0.2307,0.2317,0.2319,0.232,0.233,0.2341,0.2378,0.2409,0.2454,0.2502,0.2626,0.2706,0.2803,0.2846,0.2739,0.2853,0.2795,0.2727,0.2567,0.2482,0.2716,0.2856,0.2855,0.2855,0.2854,0.2854,0.2259,0.2263,0.2276,0.2278,0.228,0.2272,0.2257,0.2276,0.2296,0.2319,0.2403,0.2467,0.2646,0.2802,0.2833,0.2902,0.2786,0.2861,0.2806,0.2679,0.2587,0.2837,0.2939,0.2939,0.2939,0.2938,0.2938,0,0.2205,0.2218,0.2228,0.2223,0.2206,0.2223,0.222,0.2197,0.2195,0.226,0.2302,0.2487,0.2631,0.2771,0.292,0.2867,0.2768,0.2792,0.262,0.2569,0.2842,0.2815,0.2876,0.2876,0.2876,0.2876,0.2876,0.2876,0.2175,0.2165,0.2179,0.2146,0.2141,0.2092,0.2079,0.2058,0.2088,0.2123,0.2203,0.2299,0.2559,0.2778,0.2843,0.2806,0.2592,0.2524,0.2423,0.2649,0.265,0.2651,0.2614,0.2632,0.2632,0.2129,0.2125,0.2122]},{"header":{"parameterUnit":"m.s-1","parameterCategory":2,"la1":30.2991,"la2":30.254,"lo1":-89.0895,"lo2":-89.0444,"dy":0.0017,"dx":0.0017,"nx":28,"ny":28,"refTime":"2024-05-20T09:00:00:Z","depth":"0","parameterNumber":3,"parameterNumberName":"V-component_of_CURRENTS"},"data":[0,0,0,0,0,0,0,0,0,0,0,0,0,0,0,0,0,0,0,0,0,0,0,0,0,0,0,0,0,0,0,0,0,0,0,0,0,0,0,0,0,0,0,0,0,0,0,0,0,0,0,0,0,0,0,0,0,0,-0.0271,-0.0271,0,-0.0256,-0.0256,-0.0255,-0.0258,-0.0258,-0.0258,-0.0259,-0.0238,-0.0237,-0.0236,0,0,0,0,0,0,0,0,0,0,0,0,0,-0.0301,-0.0301,-0.0271,-0.0271,-0.0271,-0.0256,-0.0256,-0.0255,-0.0258,-0.0258,-0.0258,-0.0259,-0.0238,-0.0237,-0.0236,0,0,0,0,0,0,0,0,0,0,0,0,0,-0.0287,-0.0301,-0.0271,-0.027,-0.027,-0.0256,-0.0256,-0.0255,-0.0258,-0.0258,-0.0258,-0.0259,-0.0239,-0.0237,-0.0236,-0.022,0,0,-0.0232,-0.0232,0,0,0,0,0,0,0,0,-0.0288,-0.0286,-0.0271,-0.0271,-0.027,-0.0259,-0.0259,-0.0243,-0.0257,-0.0262,-0.0259,-0.0259,-0.0245,-0.0243,-0.0239,-0.0219,-0.0218,-0.0232,-0.0232,-0.0231,-0.0231,0,0,0,0,0,0,0,-0.0289,-0.0287,-0.0265,-0.0271,-0.027,-0.027,-0.0269,-0.0256,-0.0251,-0.0262,-0.0262,-0.0261,-0.0244,-0.024,-0.0238,-0.0218,-0.0232,-0.0231,-0.0231,-0.023,-0.0144,-0.0142,0,0,0,0,0,0,-0.0291,-0.0287,-0.0265,-0.0264,-0.0281,-0.027,-0.0268,-0.0262,-0.0251,-0.025,-0.026,-0.0261,-0.0242,-0.024,-0.0237,-0.0197,-0.0231,-0.023,-0.0229,-0.0145,-0.0144,-0.0142,0,0,0,0,0,0,-0.0291,-0.0289,-0.0266,-0.0276,-0.0273,-0.0269,-0.0262,-0.0262,-0.0257,-0.025,-0.0249,-0.0257,-0.0242,-0.0239,-0.0219,-0.0197,-0.0229,-0.0228,-0.0147,-0.0145,-0.0143,-0.0129,0,0,0,0,0,0,-0.0292,-0.0289,-0.0288,-0.0276,-0.0273,-0.0257,-0.0262,-0.0261,-0.0256,-0.0257,-0.0247,-0.0245,-0.0242,-0.022,-0.0217,-0.0196,-0.0227,-0.0149,-0.0146,-0.0143,-0.0132,-0.0127,-0.0123,0,0,0,0,0,-0.0293,-0.0295,-0.0288,-0.0286,-0.0271,-0.0257,-0.0255,-0.0253,-0.0256,-0.0251,-0.024,-0.0246,-0.0199,-0.0218,-0.0215,-0.0193,-0.0151,-0.0147,-0.0144,-0.0134,-0.0128,-0.0123,0,0,0,0,0,0,-0.0317,-0.0295,-0.0288,-0.0285,-0.0269,-0.0257,-0.0259,-0.0251,-0.0239,-0.024,-0.0233,-0.023,-0.0202,-0.0195,-0.0217,-0.0156,-0.0173,-0.0168,-0.0166,-0.016,-0.0156,-0.0151,-0.0226,0,0,0,0,0,-0.0318,-0.0309,-0.0289,-0.0287,-0.028,-0.0266,-0.0262,-0.0255,-0.0242,-0.0238,-0.0227,-0.0208,-0.0184,-0.0173,-0.0155,-0.0126,-0.0131,-0.0105,-0.0101,-0.0097,-0.0088,-0.008,-0.0075,-0.013,-0.013,-0.0131,0,0,-0.0326,-0.0315,-0.031,-0.029,-0.0282,-0.0258,-0.0265,-0.0256,-0.0231,-0.0237,-0.0206,-0.0196,-0.0172,-0.014,-0.0125,-0.0133,-0.0084,-0.0093,-0.009,-0.0083,-0.0076,-0.0071,-0.0066,-0.0128,-0.0129,-0.0129,0,0,-0.033,-0.0327,-0.0313,-0.0296,-0.0277,-0.0263,-0.0258,-0.0237,-0.0225,-0.0194,-0.0186,-0.0161,-0.0131,-0.0105,-0.0088,-0.0044,-0.0063,-0.0038,-0.0011,-0.0003,0.0001,0.0005,-0.0006,-0.0003,-0.0033,-0.0033,-0.0033,0,-0.0345,-0.0313,-0.0309,-0.0286,-0.0267,-0.0262,-0.0232,-0.0217,-0.019,-0.0169,-0.0182,-0.0119,-0.0108,-0.0053,-0.0038,-0.0034,-0.0044,-0.0039,0.0,0.0004,0.0007,-0.0004,-0.0001,-0.0032,-0.0032,-0.0032,-0.0033,0,-0.0322,-0.0297,-0.0291,-0.0252,-0.0235,-0.0214,-0.0185,-0.0166,-0.0153,-0.0131,-0.0085,-0.0069,-0.0031,-0.002,-0.0018,0.0025,0.0004,-0.0001,-0.0021,0.0013,-0.0,0.0002,-0.0031,-0.0031,-0.0031,-0.0032,0,0,-0.0352,-0.0285,-0.0282,-0.0246,-0.021,-0.019,-0.0152,-0.0106,-0.0077,-0.0055,-0.0012,0.0029,0.0028,0.0048,0.0055,0.0064,0.0072,0.004,0.004,0.0017,0.007,0.0042,0.0041,0.0064,0.0064,0.0065,0.0046,0,-0.0332,-0.0271,-0.0245,-0.0186,-0.0147,-0.0125,-0.0089,-0.0051,-0.0028,0.0008,0.0033,0.0068,0.0058,0.007,0.0081,0.008,0.0081,0.0077,0.0053,0.0053,0.0012,0.0045,0.0062,0.0046,0.0048,0.0049,0.0049,0,-0.0306,-0.0265,-0.0198,-0.0128,-0.0112,-0.0083,-0.0023,0.001,0.0056,0.0072,0.0104,0.0112,0.0147,0.0119,0.0132,0.0125,0.0101,0.009,0.0089,0.0062,0.003,0.0017,0.005,0.0003,0.0052,0.0052,0.0052,0,-0.03,-0.023,-0.017,-0.0146,-0.0075,-0.0045,-0.0016,0.0031,0.0066,0.0107,0.0128,0.016,0.0176,0.0163,0.0143,0.0133,0.0137,0.0121,0.0073,0.0069,0.0082,0.0078,0.006,0.0121,0.0121,0.0121,0.0121,0,-0.0272,-0.0225,-0.0163,-0.0127,-0.0068,-0.0031,0.0025,0.0055,0.0099,0.0145,0.0156,0.0193,0.0185,0.0187,0.0156,0.0125,0.0147,0.0085,0.007,0.0086,0.0084,0.0042,-0.0007,0.012,0.012,0.0121,0.0121,0,-0.0255,-0.0214,-0.0144,-0.0075,-0.0055,-0.0015,0.0047,0.0085,0.0117,0.0174,0.0187,0.0221,0.0223,0.0202,0.0183,0.0143,0.0071,0.0091,0.01,0.0087,-0.0008,-0.0057,-0.0165,-0.017,0.0037,0.0036,0.0035,0,-0.0232,-0.0193,-0.0116,-0.0084,-0.005,0.0006,0.0044,0.009,0.0129,0.0197,0.0226,0.0245,0.0275,0.0231,0.0168,0.0108,0.0047,0.0062,0.0054,-0.0004,-0.0069,-0.0151,-0.0152,0.0072,0.0071,0.0071,0.0071,0,-0.0195,-0.0174,-0.0122,-0.0063,-0.0017,0.0041,0.0096,0.0131,0.0188,0.0234,0.0297,0.0326,0.0294,0.0267,0.0173,0.0117,0.0006,0.0054,0.0006,-0.0032,-0.0133,-0.0147,0.0057,0.0069,0.0069,0.0069,0.007,0.007,-0.0178,-0.0146,-0.0093,-0.0038,0.0011,0.007,0.0115,0.0172,0.0238,0.0323,0.0346,0.0423,0.0379,0.0266,0.016,0.0005,-0.0029,-0.003,-0.0082,-0.0159,-0.017,0.0015,0.0,0.0,0.0,-0.0,-0.0,0,-0.0158,-0.0125,-0.0073,-0.0008,0.004,0.0067,0.0146,0.0197,0.0271,0.0375,0.0437,0.0512,0.0415,0.0299,0.0103,-0.006,-0.0147,-0.0158,-0.024,-0.0227,-0.0034,-0.0035,-0.0073,-0.0073,-0.0072,-0.0072,-0.0072,-0.0072,-0.0146,-0.01,-0.0075,-0.0,0.0044,0.0114,0.016,0.024,0.033,0.0474,0.0578,0.0653,0.0679,0.0246,-0.0048,-0.0152,-0.0286,-0.0388,-0.042,-0.0256,-0.0247,-0.0239,-0.0248,-0.0329,-0.033,-0.0574,-0.0577,-0.0578]}],[{"header":{"parameterUnit":"m.s-1","parameterCategory":2,"la1":30.2991,"la2":30.254,"lo1":-89.0895,"lo2":-89.0444,"dy":0.0017,"dx":0.0017,"nx":28,"ny":28,"refTime":"2024-05-20T09:00:00:Z","depth":"2","parameterNumber":2,"parameterNumberName":"U-component_of_CURRENTS"},"data":[0,0,0,0,0,0,0,0,0,0,0,0,0,0,0,0,0,0,0,0,0,0,0,0,0,0,0,0,0,0,0,0,0,0,0,0,0,0,0,0,0,0,0,0,0,0,0,0,0,0,0,0,0,0,0,0,0,0,0.0528,0.0529,0,0.0544,0.0544,0.0543,0.0575,0.0577,0.0579,0.058,0.0621,0.062,0.062,0,0,0,0,0,0,0,0,0,0,0,0,0,0.0401,0.0403,0.0527,0.0529,0.053,0.0544,0.0544,0.0543,0.0575,0.0577,0.0579,0.0581,0.0621,0.062,0.062,0,0,0,0,0,0,0,0,0,0,0,0,0,0.043,0.0404,0.0527,0.0556,0.056,0.0545,0.0544,0.0543,0.0575,0.0577,0.058,0.0582,0.0621,0.0621,0.062,0.0565,0,0,0.0618,0.0617,0,0,0,0,0,0,0,0,0.0429,0.0434,0.0551,0.0554,0.0558,0.057,0.0515,0.0555,0.0574,0.0557,0.058,0.0583,0.0612,0.0612,0.0593,0.0567,0.0569,0.0618,0.0617,0.0617,0.0617,0,0,0,0,0,0,0,0.0427,0.0433,0.0523,0.0552,0.0557,0.0527,0.0534,0.0521,0.0562,0.0559,0.0564,0.0583,0.0613,0.0593,0.0595,0.057,0.0618,0.0617,0.0617,0.0616,0.0589,0.0589,0,0,0,0,0,0,0.0452,0.0431,0.0522,0.0524,0.0511,0.0529,0.0536,0.0555,0.0562,0.0568,0.0581,0.0585,0.0593,0.0595,0.0596,0.061,0.0617,0.0616,0.0616,0.059,0.0589,0.0589,0,0,0,0,0,0,0.0449,0.0459,0.0522,0.0487,0.0495,0.0531,0.055,0.0554,0.0567,0.058,0.0585,0.0596,0.0596,0.0597,0.0604,0.061,0.0616,0.0615,0.059,0.059,0.0589,0.0588,0,0,0,0,0,0,0.0445,0.0458,0.0453,0.0489,0.0498,0.0511,0.0549,0.0553,0.0579,0.0584,0.0594,0.0599,0.0598,0.0605,0.0603,0.0609,0.0615,0.059,0.059,0.0589,0.0589,0.0588,0.0587,0,0,0,0,0,0.044,0.0409,0.0452,0.0463,0.0499,0.0511,0.0509,0.0536,0.0578,0.0561,0.0586,0.06,0.0601,0.0603,0.0602,0.0607,0.0591,0.059,0.0589,0.0589,0.0588,0.0587,0,0,0,0,0,0,0.0333,0.0412,0.0459,0.0452,0.0491,0.0521,0.0496,0.0546,0.0549,0.0565,0.0588,0.0592,0.0598,0.0599,0.0602,0.0598,0.06,0.0599,0.0601,0.06,0.0599,0.0608,0.0614,0,0,0,0,0,0.0318,0.0327,0.0403,0.0396,0.0414,0.0467,0.0473,0.0515,0.0539,0.0544,0.057,0.0587,0.0583,0.0593,0.0584,0.0578,0.0593,0.0583,0.0582,0.0582,0.0587,0.0603,0.0605,0.0587,0.0587,0.0587,0,0,0.0282,0.0321,0.033,0.0376,0.04,0.0426,0.0472,0.0491,0.0523,0.0546,0.0572,0.058,0.0579,0.0573,0.0578,0.0584,0.0595,0.0581,0.0581,0.0586,0.0603,0.0605,0.0606,0.0586,0.0586,0.0587,0,0,0.0224,0.0246,0.0254,0.0283,0.0346,0.0378,0.04,0.0463,0.0489,0.0519,0.0547,0.0564,0.0567,0.0571,0.0571,0.056,0.0585,0.0564,0.0574,0.059,0.0592,0.0594,0.062,0.0625,0.0571,0.0571,0.0571,0,0.0193,0.0218,0.0249,0.0269,0.0301,0.0369,0.0402,0.0418,0.0485,0.0515,0.0529,0.0563,0.0562,0.057,0.0567,0.056,0.0579,0.0579,0.059,0.0592,0.0594,0.0621,0.0626,0.0571,0.0571,0.0571,0.0571,0,0.0169,0.0188,0.018,0.0249,0.0268,0.0293,0.0361,0.0392,0.045,0.0496,0.0532,0.0533,0.0567,0.056,0.0558,0.0576,0.0589,0.0582,0.0595,0.0596,0.0624,0.0629,0.0571,0.0571,0.0571,0.0571,0,0,0.0148,0.0171,0.0179,0.0213,0.0275,0.0299,0.0332,0.0399,0.0451,0.0487,0.0547,0.0534,0.0572,0.0574,0.0583,0.059,0.0615,0.0597,0.0598,0.0629,0.0666,0.0774,0.079,0.0617,0.0618,0.0618,0.0683,0,0.0152,0.017,0.0192,0.0231,0.0256,0.0315,0.0347,0.0408,0.046,0.0519,0.0538,0.058,0.0565,0.0598,0.06,0.062,0.0628,0.0599,0.0656,0.0658,0.0758,0.0799,0.0671,0.0728,0.0688,0.0689,0.0689,0,0.0167,0.0174,0.0202,0.0254,0.0275,0.031,0.0397,0.0438,0.051,0.0555,0.0599,0.0628,0.0658,0.0639,0.0672,0.0661,0.0663,0.0664,0.0666,0.0773,0.0776,0.0718,0.0738,0.0698,0.0697,0.0696,0.0696,0,0.0166,0.02,0.0219,0.0237,0.0292,0.0333,0.0381,0.0458,0.051,0.0591,0.0645,0.0679,0.0727,0.0722,0.0748,0.0715,0.0788,0.074,0.0831,0.0839,0.0746,0.0746,0.0747,0.0747,0.0747,0.0747,0.0747,0,0.0179,0.0206,0.0222,0.0237,0.0288,0.0337,0.0415,0.0472,0.0557,0.0625,0.0671,0.0739,0.0751,0.0801,0.0782,0.0861,0.0823,0.0855,0.0872,0.0745,0.0744,0.0723,0.072,0.0749,0.0749,0.0748,0.0748,0,0.0194,0.0196,0.0223,0.0266,0.0288,0.0332,0.0432,0.0484,0.0575,0.0667,0.07,0.0803,0.0903,0.0923,0.0951,0.0943,0.0974,0.0996,0.0869,0.0872,0.0994,0.0989,0.1099,0.1104,0.1108,0.1111,0.1114,0,0.0206,0.0212,0.0237,0.0252,0.0279,0.0345,0.0393,0.0485,0.0543,0.071,0.0751,0.0896,0.101,0.1132,0.1176,0.1222,0.1119,0.1072,0.0985,0.103,0.1034,0.1023,0.1014,0.0841,0.0842,0.0842,0.0842,0,0.023,0.0232,0.0244,0.0261,0.0298,0.0343,0.0421,0.0469,0.0589,0.0686,0.0841,0.0957,0.1161,0.121,0.131,0.1276,0.1063,0.1086,0.1151,0.0808,0.0802,0.0802,0.0797,0.0844,0.0844,0.0844,0.0843,0.0843,0.0253,0.0257,0.0256,0.0288,0.031,0.0349,0.0407,0.0485,0.059,0.076,0.0868,0.1015,0.107,0.1239,0.1245,0.1227,0.1279,0.1082,0.1073,0.1065,0.106,0.1066,0.1155,0.1156,0.1157,0.1159,0.116,0,0.0288,0.0286,0.0293,0.031,0.033,0.036,0.0432,0.0489,0.0612,0.0754,0.0917,0.09,0.1004,0.1053,0.1098,0.1144,0.1049,0.1011,0.0821,0.0821,0.0821,0.0795,0.0823,0.0823,0.0822,0.0822,0,0,0.0301,0.031,0.0306,0.0332,0.0359,0.042,0.0474,0.0546,0.0633,0.0725,0.0797,0.0974,0.1016,0.0905,0.0911,0.0879,0.083,0.0835,0.1097,0.0872,0.087,0.0853,0.0815,0,0,0,0,0]},{"header":{"parameterUnit":"m.s-1","parameterCategory":2,"la1":30.2991,"la2":30.254,"lo1":-89.0895,"lo2":-89.0444,"dy":0.0017,"dx":0.0017,"nx":28,"ny":28,"refTime":"2024-05-20T09:00:00:Z","depth":"2","parameterNumber":3,"parameterNumberName":"V-component_of_CURRENTS"},"data":[0,0,0,0,0,0,0,0,0,0,0,0,0,0,0,0,0,0,0,0,0,0,0,0,0,0,0,0,0,0,0,0,0,0,0,0,0,0,0,0,0,0,0,0,0,0,0,0,0,0,0,0,0,0,0,0,0,0,-0.0261,-0.0261,0,-0.0236,-0.0235,-0.0235,-0.0229,-0.023,-0.023,-0.0231,-0.0227,-0.0226,-0.0226,0,0,0,0,0,0,0,0,0,0,0,0,0,-0.0272,-0.0272,-0.0261,-0.0261,-0.0261,-0.0236,-0.0235,-0.0235,-0.0229,-0.023,-0.023,-0.0231,-0.0227,-0.0226,-0.0226,0,0,0,0,0,0,0,0,0,0,0,0,0,-0.0256,-0.0272,-0.0261,-0.0258,-0.0258,-0.0236,-0.0235,-0.0235,-0.0229,-0.023,-0.023,-0.0231,-0.0227,-0.0226,-0.0226,-0.0204,0,0,-0.0223,-0.0222,0,0,0,0,0,0,0,0,-0.0257,-0.0255,-0.0258,-0.0258,-0.0258,-0.024,-0.0238,-0.0227,-0.0229,-0.0236,-0.0231,-0.0231,-0.0235,-0.0234,-0.0221,-0.0204,-0.0204,-0.0223,-0.0222,-0.0222,-0.0222,0,0,0,0,0,0,0,-0.0258,-0.0256,-0.0247,-0.0258,-0.0258,-0.0248,-0.0246,-0.0235,-0.0229,-0.0235,-0.0236,-0.0239,-0.0235,-0.0222,-0.0221,-0.0204,-0.0223,-0.0222,-0.0221,-0.0221,-0.0198,-0.0197,0,0,0,0,0,0,-0.0269,-0.0257,-0.0248,-0.0247,-0.0264,-0.0247,-0.0245,-0.0242,-0.0228,-0.0228,-0.0238,-0.0239,-0.0223,-0.0222,-0.0221,-0.0218,-0.0222,-0.0221,-0.0221,-0.0198,-0.0198,-0.0197,0,0,0,0,0,0,-0.027,-0.0268,-0.0249,-0.0255,-0.0252,-0.0247,-0.0243,-0.0241,-0.0245,-0.0231,-0.0231,-0.0247,-0.0224,-0.0223,-0.0218,-0.0218,-0.0221,-0.022,-0.0198,-0.0198,-0.0197,-0.0198,0,0,0,0,0,0,-0.027,-0.0268,-0.0269,-0.0255,-0.0252,-0.023,-0.0242,-0.024,-0.0246,-0.0247,-0.0238,-0.0237,-0.0224,-0.0219,-0.0217,-0.0216,-0.0219,-0.0198,-0.0198,-0.0198,-0.0198,-0.0198,-0.0198,0,0,0,0,0,-0.027,-0.0246,-0.0269,-0.0268,-0.0253,-0.023,-0.0226,-0.0223,-0.0246,-0.0233,-0.0238,-0.0238,-0.0217,-0.0218,-0.0216,-0.0215,-0.0198,-0.0198,-0.0198,-0.0198,-0.0198,-0.0198,0,0,0,0,0,0,-0.023,-0.0244,-0.0268,-0.0246,-0.0247,-0.023,-0.0218,-0.0233,-0.0226,-0.024,-0.0234,-0.0232,-0.0225,-0.0222,-0.0224,-0.0208,-0.0209,-0.0208,-0.021,-0.021,-0.021,-0.0199,-0.0218,0,0,0,0,0,-0.0231,-0.0227,-0.0239,-0.0221,-0.0228,-0.0235,-0.023,-0.0239,-0.0234,-0.0232,-0.0232,-0.0232,-0.0218,-0.0218,-0.0203,-0.0197,-0.0195,-0.0196,-0.0196,-0.0196,-0.0185,-0.018,-0.0179,-0.0197,-0.0197,-0.0197,0,0,-0.0206,-0.0217,-0.0212,-0.0215,-0.0219,-0.0206,-0.0232,-0.0229,-0.0221,-0.0234,-0.0224,-0.023,-0.0215,-0.0201,-0.02,-0.0203,-0.0193,-0.0195,-0.0195,-0.0185,-0.018,-0.0178,-0.0176,-0.0197,-0.0197,-0.0197,0,0,-0.0151,-0.0174,-0.016,-0.0165,-0.0187,-0.019,-0.0198,-0.0207,-0.0215,-0.0214,-0.022,-0.0227,-0.0213,-0.0199,-0.019,-0.0182,-0.0188,-0.0188,-0.0182,-0.0177,-0.0176,-0.0174,-0.0183,-0.0182,-0.0192,-0.0192,-0.0192,0,-0.0133,-0.0119,-0.0146,-0.0138,-0.014,-0.0186,-0.017,-0.0174,-0.0181,-0.0191,-0.0211,-0.0206,-0.0203,-0.0179,-0.0179,-0.018,-0.0187,-0.0184,-0.0177,-0.0175,-0.0173,-0.0183,-0.0182,-0.0192,-0.0192,-0.0192,-0.0192,0,-0.0068,-0.0071,-0.0059,-0.0074,-0.0071,-0.0067,-0.0091,-0.0102,-0.0138,-0.0153,-0.0163,-0.0168,-0.0167,-0.0172,-0.0172,-0.0162,-0.0174,-0.0174,-0.0177,-0.0172,-0.0182,-0.0181,-0.0192,-0.0192,-0.0192,-0.0192,0,0,-0.0022,-0.0018,-0.0025,-0.0027,-0.0049,-0.0039,-0.0035,-0.0045,-0.0053,-0.0087,-0.009,-0.0092,-0.0132,-0.0125,-0.014,-0.0143,-0.0148,-0.016,-0.016,-0.0169,-0.0154,-0.0163,-0.0163,-0.0154,-0.0153,-0.0153,-0.0171,0,0.0017,0.005,0.0039,0.0062,0.007,0.0033,0.0048,0.0027,-0.0005,-0.002,-0.0061,-0.0068,-0.0103,-0.0118,-0.0126,-0.014,-0.0144,-0.0144,-0.0157,-0.0157,-0.0166,-0.0161,-0.012,-0.0133,-0.017,-0.017,-0.017,0,0.0054,0.007,0.0102,0.0109,0.0108,0.0114,0.0101,0.0107,0.0073,0.0045,0.0008,-0.0029,-0.0051,-0.0079,-0.0106,-0.011,-0.0129,-0.0142,-0.0143,-0.0146,-0.0164,-0.0141,-0.0129,-0.0168,-0.0168,-0.0168,-0.0168,0,0.0075,0.0099,0.0124,0.0126,0.0139,0.0135,0.0133,0.0111,0.0115,0.007,0.006,0.0015,-0.0007,-0.0039,-0.0094,-0.01,-0.0121,-0.0128,-0.015,-0.0152,-0.0115,-0.0114,-0.0128,-0.0128,-0.0128,-0.0128,-0.0128,0,0.0103,0.0112,0.0129,0.0138,0.0162,0.0154,0.0164,0.015,0.014,0.0149,0.0082,0.0087,0.0002,-0.0031,-0.0078,-0.0121,-0.0112,-0.0143,-0.0152,-0.0116,-0.0115,-0.0139,-0.014,-0.0129,-0.0129,-0.0129,-0.0129,0,0.0105,0.0118,0.0142,0.0162,0.0166,0.0172,0.0187,0.0202,0.0179,0.0191,0.0178,0.0136,0.0083,-0.0,-0.0052,-0.0093,-0.0134,-0.0145,-0.0111,-0.0115,-0.0172,-0.0173,-0.0169,-0.0169,-0.0169,-0.017,-0.017,0,0.0114,0.0127,0.0153,0.0172,0.0171,0.0187,0.0208,0.0209,0.023,0.0234,0.025,0.0196,0.0192,0.009,-0.0011,-0.01,-0.0132,-0.0125,-0.0118,-0.0165,-0.0174,-0.0174,-0.0175,-0.0076,-0.0076,-0.0075,-0.0075,0,0.0131,0.0125,0.0149,0.0185,0.0204,0.0249,0.0272,0.0303,0.0315,0.0342,0.0381,0.0385,0.0276,0.0192,0.0037,-0.0011,-0.0115,-0.0118,-0.0161,-0.0076,-0.008,-0.0088,-0.0091,-0.0071,-0.0071,-0.0071,-0.0072,-0.0072,0.0132,0.0148,0.0174,0.0203,0.0237,0.0296,0.0332,0.0388,0.0447,0.052,0.0517,0.0543,0.039,0.0228,0.009,-0.0067,-0.0063,-0.0103,-0.0103,-0.0104,-0.0094,-0.0098,-0.0091,-0.0092,-0.0092,-0.0093,-0.0093,0,0.0155,0.0164,0.02,0.0244,0.0288,0.0293,0.0372,0.0437,0.0524,0.0626,0.0695,0.0604,0.0495,0.0298,0.0083,-0.0039,-0.0032,-0.0086,-0.006,-0.0062,-0.0064,-0.0052,-0.0038,-0.0039,-0.0039,-0.004,0,0,0.017,0.0202,0.0219,0.0278,0.03,0.0366,0.0409,0.0522,0.0614,0.0757,0.0793,0.0824,0.0561,0.0406,0.0216,0.0082,0.0053,0.0075,0.0051,0.0106,0.0105,-0.0051,-0.0031,0,0,0,0,0]}],[{"header":{"parameterUnit":"m.s-1","parameterCategory":2,"la1":30.2991,"la2":30.254,"lo1":-89.0895,"lo2":-89.0444,"dy":0.0017,"dx":0.0017,"nx":28,"ny":28,"refTime":"2024-05-20T09:00:00:Z","depth":"4","parameterNumber":2,"parameterNumberName":"U-component_of_CURRENTS"},"data":[0,0,0,0,0,0,0,0,0,0,0,0,0,0,0,0,0,0,0,0,0,0,0,0,0,0,0,0,0,0,0,0,0,0,0,0,0,0,0,0,0,0,0,0,0,0,0,0,0,0,0,0,0,0,0,0,0,0,-0.0,-0.0,0,-0.0024,-0.0024,-0.0025,-0.003,-0.0029,-0.0029,-0.0029,-0.0063,-0.0064,-0.0065,0,0,0,0,0,0,0,0,0,0,0,0,0,-0.0004,-0.0003,-0.0,-0.0,-0.0001,-0.0024,-0.0024,-0.0025,-0.003,-0.0029,-0.0029,-0.0029,-0.0063,-0.0064,-0.0066,0,0,0,0,0,0,0,0,0,0,0,0,0,-0.0012,-0.0003,0.0,-0.0006,-0.0007,-0.0024,-0.0024,-0.0025,-0.003,-0.0029,-0.0029,-0.0029,-0.0063,-0.0064,-0.0066,-0.0081,0,0,-0.0071,-0.0071,0,0,0,0,0,0,0,0,-0.0012,-0.0012,-0.0005,-0.0006,-0.0006,-0.0024,-0.0038,-0.0044,-0.003,-0.0021,-0.0029,-0.0029,-0.0051,-0.0054,-0.0059,-0.0083,-0.0084,-0.0071,-0.0072,-0.0073,-0.0073,0,0,0,0,0,0,0,-0.0011,-0.0011,-0.001,-0.0005,-0.0006,-0.0023,-0.0023,-0.004,-0.0038,-0.0022,-0.0022,-0.0025,-0.0052,-0.0057,-0.006,-0.0085,-0.0071,-0.0072,-0.0073,-0.0074,-0.0168,-0.0169,0,0,0,0,0,0,-0.0006,-0.001,-0.0009,-0.001,-0.0008,-0.0023,-0.0023,-0.0018,-0.0037,-0.004,-0.0025,-0.0025,-0.0055,-0.0058,-0.0061,-0.0113,-0.0073,-0.0074,-0.0075,-0.0166,-0.0168,-0.017,0,0,0,0,0,0,-0.0006,-0.0005,-0.0008,-0.0012,-0.0013,-0.0023,-0.0017,-0.0019,-0.0027,-0.004,-0.0042,-0.0032,-0.0054,-0.0059,-0.009,-0.0113,-0.0075,-0.0076,-0.0165,-0.0167,-0.0169,-0.0196,0,0,0,0,0,0,-0.0006,-0.0005,0.0,-0.0011,-0.0013,-0.0023,-0.0018,-0.002,-0.0029,-0.0029,-0.0046,-0.0049,-0.0055,-0.0088,-0.0092,-0.0115,-0.0078,-0.0163,-0.0166,-0.0168,-0.0193,-0.0199,-0.0204,0,0,0,0,0,-0.0005,-0.0001,0.0001,0.0001,-0.0005,-0.0024,-0.0027,-0.0033,-0.003,-0.0038,-0.0056,-0.0048,-0.0109,-0.009,-0.0095,-0.0118,-0.0161,-0.0165,-0.0168,-0.0191,-0.0198,-0.0204,0,0,0,0,0,0,-0.0002,-0.0001,0.0001,0.0005,-0.001,-0.0025,-0.003,-0.0036,-0.0056,-0.0057,-0.0066,-0.0071,-0.0109,-0.0112,-0.0092,-0.0156,-0.0135,-0.0139,-0.0151,-0.0158,-0.0163,-0.0127,-0.0079,0,0,0,0,0,0.0002,0.0011,-0.0002,0.0002,-0.0005,-0.0018,-0.0026,-0.0035,-0.0053,-0.006,-0.0077,-0.0099,-0.0127,-0.0139,-0.0163,-0.0194,-0.0162,-0.0214,-0.022,-0.0224,-0.02,-0.018,-0.0181,-0.0181,-0.0181,-0.0181,0,0,0.0006,0.0008,0.0013,0.0004,-0.0005,-0.0024,-0.0022,-0.0039,-0.0061,-0.0062,-0.0098,-0.0118,-0.0141,-0.0181,-0.0198,-0.0185,-0.0211,-0.0228,-0.0232,-0.0205,-0.0184,-0.0183,-0.0183,-0.0183,-0.0183,-0.0183,0,0,0.0016,0.0017,0.0026,0.0006,-0.0011,-0.0028,-0.0034,-0.006,-0.0076,-0.0113,-0.0126,-0.0155,-0.0196,-0.0216,-0.0231,-0.0279,-0.0241,-0.0296,-0.029,-0.0273,-0.0272,-0.027,-0.0233,-0.0228,-0.0296,-0.0296,-0.0296,0,0.0021,0.003,0.0021,0.0011,-0.0006,-0.003,-0.0046,-0.0073,-0.0109,-0.0128,-0.0129,-0.019,-0.0211,-0.0253,-0.0268,-0.0289,-0.0259,-0.0263,-0.0276,-0.0274,-0.0272,-0.0234,-0.0228,-0.0298,-0.0298,-0.0297,-0.0297,0,0.0029,0.0029,0.0026,0.0009,-0.0017,-0.0035,-0.0078,-0.0109,-0.0133,-0.0158,-0.0205,-0.023,-0.0252,-0.0283,-0.0286,-0.0297,-0.0275,-0.0285,-0.0251,-0.0272,-0.0233,-0.0226,-0.03,-0.03,-0.0299,-0.0299,0,0,0.0057,0.0041,0.0039,0.0029,-0.0021,-0.0041,-0.0091,-0.0138,-0.0163,-0.0205,-0.0226,-0.0281,-0.0274,-0.0288,-0.0303,-0.0295,-0.0263,-0.0274,-0.0273,-0.022,-0.0198,-0.0177,-0.0167,-0.0268,-0.0267,-0.0266,-0.0177,0,0.0067,0.0069,0.0042,0.0015,0.0004,-0.0052,-0.0095,-0.0149,-0.0189,-0.0221,-0.0254,-0.0271,-0.0284,-0.0277,-0.0278,-0.0264,-0.0244,-0.0284,-0.0199,-0.0195,-0.016,-0.0159,-0.0263,-0.0172,-0.017,-0.0169,-0.0168,0,0.0079,0.008,0.0078,0.0027,0.0014,-0.001,-0.0079,-0.0121,-0.0185,-0.0212,-0.0235,-0.0249,-0.0245,-0.0246,-0.0212,-0.023,-0.0201,-0.0194,-0.0191,-0.0148,-0.0161,-0.0147,-0.0155,-0.0156,-0.0157,-0.0158,-0.0158,0,0.0116,0.0091,0.0099,0.0082,0.0026,0.0008,-0.0028,-0.0104,-0.0139,-0.0173,-0.0179,-0.0201,-0.0169,-0.016,-0.012,-0.0157,-0.0064,-0.0122,-0.0078,-0.0076,-0.0107,-0.011,-0.008,-0.008,-0.008,-0.008,-0.0081,0,0.0131,0.0127,0.0129,0.0129,0.0115,0.0058,0.0028,-0.002,-0.0073,-0.009,-0.0136,-0.0125,-0.0136,-0.0095,-0.0091,-0.0035,-0.0029,-0.0055,-0.0048,-0.0124,-0.013,-0.0102,-0.0106,-0.0077,-0.0078,-0.0078,-0.0079,0,0.0155,0.0162,0.0168,0.0147,0.0141,0.0135,0.0077,0.005,0.0007,-0.0004,0.0004,-0.003,0.0025,0.0022,0.0061,0.0034,0.0061,0.0085,0.0047,0.0047,0.0022,0.0015,0.0106,0.0108,0.0109,0.011,0.0111,0,0.0162,0.0181,0.02,0.0213,0.0211,0.0196,0.0176,0.0109,0.0084,0.0062,0.007,0.0114,0.0104,0.0184,0.0158,0.0175,0.0161,0.0171,0.0045,0.0046,0.0043,0.0034,0.0026,0.0113,0.0113,0.0114,0.0114,0,0.0167,0.0196,0.0209,0.0256,0.0265,0.0249,0.0228,0.0213,0.0156,0.0132,0.0158,0.0162,0.022,0.0215,0.0261,0.0253,0.0145,0.0183,0.0178,0.0059,0.0055,0.0049,0.0039,0.0119,0.0118,0.0118,0.0117,0,0.0172,0.0195,0.0242,0.0266,0.0293,0.0298,0.0276,0.0262,0.0234,0.0202,0.0235,0.0254,0.0266,0.0261,0.0294,0.0301,0.0243,0.0191,0.0184,0.0178,0.015,0.0152,0.0273,0,0,0,0,0,0.0169,0.0196,0.0233,0.0267,0.0302,0.0303,0.0298,0.0269,0.0236,0.0271,0.0242,0.0294,0.0306,0.0299,0.0311,0.0276,0.0231,0.0282,0.0165,0.0144,0.0139,0.0092,0,0,0,0,0,0,0.0166,0.0211,0.0232,0.0267,0.028,0.03,0.0296,0.0277,0.0278,0.0264,0.0284,0.0269,0.0293,0.0318,0.0308,0.0303,0.0219,0.0284,0.0283,0.0147,0.0142,0.0138,0.0088,0,0,0,0,0]},{"header":{"parameterUnit":"m.s-1","parameterCategory":2,"la1":30.2991,"la2":30.254,"lo1":-89.0895,"lo2":-89.0444,"dy":0.0017,"dx":0.0017,"nx":28,"ny":28,"refTime":"2024-05-20T09:00:00:Z","depth":"4","parameterNumber":3,"parameterNumberName":"V-component_of_CURRENTS"},"data":[0,0,0,0,0,0,0,0,0,0,0,0,0,0,0,0,0,0,0,0,0,0,0,0,0,0,0,0,0,0,0,0,0,0,0,0,0,0,0,0,0,0,0,0,0,0,0,0,0,0,0,0,0,0,0,0,0,0,0.0241,0.0241,0,0.0245,0.0245,0.0245,0.0306,0.0307,0.0309,0.031,0.0405,0.0406,0.0407,0,0,0,0,0,0,0,0,0,0,0,0,0,0.0263,0.0262,0.0241,0.0241,0.0241,0.0245,0.0245,0.0246,0.0306,0.0308,0.0309,0.0311,0.0405,0.0406,0.0407,0,0,0,0,0,0,0,0,0,0,0,0,0,0.0259,0.0262,0.0241,0.0271,0.0274,0.0245,0.0245,0.0246,0.0305,0.0308,0.031,0.0312,0.0404,0.0406,0.0408,0.0373,0,0,0.0413,0.0413,0,0,0,0,0,0,0,0,0.0259,0.0258,0.0267,0.0269,0.0272,0.0277,0.0288,0.0293,0.0305,0.0294,0.031,0.0313,0.0369,0.0373,0.0369,0.0378,0.0382,0.0413,0.0414,0.0415,0.0415,0,0,0,0,0,0,0,0.026,0.0258,0.0243,0.0266,0.027,0.0277,0.0279,0.0289,0.0321,0.0295,0.0299,0.0298,0.0371,0.0367,0.0372,0.0383,0.0413,0.0414,0.0415,0.0416,0.049,0.049,0,0,0,0,0,0,0.0257,0.0258,0.0243,0.0243,0.0271,0.0275,0.0277,0.0273,0.0319,0.0327,0.0296,0.0301,0.0363,0.0369,0.0375,0.0439,0.0415,0.0416,0.0417,0.0489,0.049,0.0491,0,0,0,0,0,0,0.0257,0.0255,0.0243,0.0251,0.025,0.0272,0.0267,0.0272,0.0301,0.0319,0.0329,0.0324,0.0365,0.0373,0.0399,0.0439,0.0417,0.0419,0.0488,0.0489,0.049,0.0501,0,0,0,0,0,0,0.0257,0.0255,0.0257,0.0251,0.0249,0.0238,0.0265,0.0271,0.0295,0.0302,0.0345,0.0354,0.0367,0.0396,0.0401,0.0441,0.042,0.0486,0.0488,0.049,0.05,0.0503,0.0505,0,0,0,0,0,0.0258,0.0256,0.0257,0.0255,0.0249,0.0237,0.0237,0.0261,0.0295,0.0298,0.0329,0.0355,0.0412,0.0397,0.0402,0.0445,0.0485,0.0488,0.049,0.0498,0.0502,0.0505,0,0,0,0,0,0,0.0272,0.0261,0.0263,0.0259,0.0252,0.0248,0.0263,0.0273,0.0298,0.0322,0.0347,0.0356,0.04,0.0413,0.0396,0.0472,0.0461,0.0464,0.0466,0.047,0.0473,0.0435,0.0421,0,0,0,0,0,0.027,0.0265,0.0253,0.0251,0.0256,0.0263,0.0267,0.0277,0.0293,0.0308,0.0337,0.0376,0.0404,0.0429,0.0449,0.0477,0.0474,0.0515,0.0517,0.052,0.0493,0.053,0.0533,0.0498,0.0498,0.0498,0,0,0.0272,0.0267,0.0265,0.0253,0.0262,0.0248,0.0273,0.0286,0.0278,0.0313,0.0339,0.0381,0.0411,0.0447,0.0471,0.047,0.0529,0.0522,0.0524,0.0496,0.0532,0.0535,0.0538,0.0499,0.0499,0.0499,0,0,0.0271,0.0278,0.0274,0.0266,0.027,0.0262,0.0271,0.0281,0.0298,0.0308,0.0347,0.0404,0.0439,0.0473,0.0492,0.052,0.0538,0.0552,0.0542,0.0579,0.0582,0.0584,0.0582,0.0584,0.056,0.056,0.056,0,0.0278,0.0264,0.0271,0.0263,0.0254,0.027,0.0257,0.026,0.0276,0.0288,0.0322,0.0403,0.0446,0.0487,0.0507,0.0528,0.0534,0.0527,0.0581,0.0584,0.0586,0.0584,0.0586,0.0561,0.0561,0.0561,0.0561,0,0.0264,0.0257,0.0262,0.0246,0.0234,0.0233,0.0225,0.0233,0.0265,0.0275,0.0335,0.0394,0.0443,0.0489,0.0505,0.0556,0.055,0.0576,0.0568,0.059,0.0587,0.0588,0.0562,0.0562,0.0562,0.0561,0,0,0.0267,0.0254,0.0255,0.0243,0.0228,0.0214,0.0201,0.0191,0.0193,0.0249,0.0268,0.0357,0.0414,0.0438,0.0499,0.0542,0.058,0.0565,0.0567,0.0554,0.0633,0.0514,0.0504,0.0622,0.0623,0.0623,0.0623,0,0.0258,0.0239,0.0224,0.0194,0.0186,0.0175,0.0152,0.0147,0.0168,0.0189,0.0277,0.0327,0.0387,0.0439,0.0488,0.0552,0.0586,0.0575,0.0621,0.062,0.0505,0.0503,0.0625,0.0625,0.0625,0.0625,0.0626,0,0.0246,0.0233,0.0216,0.0169,0.0165,0.0147,0.0118,0.0098,0.0119,0.0145,0.0211,0.0268,0.0346,0.0403,0.0502,0.0493,0.0553,0.0603,0.0606,0.0482,0.0504,0.0601,0.0629,0.0629,0.0628,0.0628,0.0628,0,0.0253,0.0217,0.0207,0.0196,0.0154,0.0146,0.012,0.0111,0.0097,0.0136,0.0151,0.0234,0.0297,0.0377,0.0472,0.0496,0.0559,0.0612,0.0552,0.0544,0.0649,0.0646,0.067,0.067,0.067,0.067,0.067,0,0.0242,0.023,0.0221,0.0218,0.0192,0.0158,0.0134,0.012,0.011,0.0098,0.0153,0.0157,0.0298,0.0346,0.0435,0.0468,0.0532,0.0521,0.0531,0.0653,0.0652,0.0649,0.0647,0.067,0.067,0.067,0.067,0,0.0254,0.025,0.0242,0.0217,0.0207,0.0198,0.0142,0.0114,0.0108,0.0094,0.0111,0.012,0.0149,0.0248,0.0363,0.0407,0.0467,0.0471,0.0547,0.0567,0.0437,0.0436,0.0395,0.0391,0.0387,0.0384,0.0381,0,0.0253,0.0261,0.0263,0.0265,0.0264,0.0236,0.0202,0.0146,0.0104,0.0056,0.0042,0.0049,0.0066,0.0127,0.021,0.0311,0.0345,0.0379,0.0441,0.0391,0.0408,0.0412,0.0415,0.0375,0.0375,0.0374,0.0373,0,0.0256,0.0286,0.0286,0.031,0.0294,0.0234,0.0182,0.0137,0.0061,0.0056,0.0001,0.0012,0.0007,0.0062,0.0125,0.0212,0.0356,0.0342,0.0352,0.0411,0.0368,0.0388,0.0396,0.036,0.0362,0.0363,0.0364,0,0.0276,0.0289,0.0325,0.0328,0.0328,0.026,0.0196,0.0121,0.0064,0.0003,-0.0029,-0.0025,-0.0016,0.0002,0.0055,0.011,0.0145,0.0219,0.0236,0.0251,0.0202,0.0126,0.003,0,0,0,0,0,0.0284,0.0306,0.0324,0.0319,0.0325,0.0318,0.0201,0.012,0.0031,0.0003,-0.0009,-0.0018,-0.0003,-0.0026,0.0011,-0.0019,0.0146,0.0022,0.0241,0.0289,0.0304,0.0259,0,0,0,0,0,0,0.0291,0.0332,0.0331,0.0335,0.0345,0.0303,0.0237,0.0144,0.0101,0.0042,0.0041,0.0034,0.0037,0.0028,0.0044,0.0043,0.0189,0.0024,0.0025,0.0281,0.0294,0.0306,0.0265,0,0,0,0,0]}]]